QPF
0.00 0.00 0.00 0.00 0.00 0.00 0.00 0.00 0.00 0.00 0.00 0.00 0.00 0.00 0.00 0.00 0.01 0.01 0.01 0.01 0.01 0.01 0.01 0.01 0.01 0.01 0.02 0.01 0.01 0.02 0.02 0.03 0.03 0.03 0.06 0.10 0.11 0.10 0.10 0.09 0.11 0.13 0.13
0.00 0.00 0.00 0.00 0.00 0.00 0.00 0.00 0.00 0.00 0.00 0.00 0.00 0.00 0.00 0.00 0.01 0.01 0.01 0.01 0.01 0.01 0.01 0.01 0.01 0.01 0.02 0.02 0.02 0.02 0.02 0.03 0.03 0.04 0.06 0.09 0.14 0.14 0.14 0.13 0.13 0.14 0.13
0.00 0.00 0.00 0.00 0.00 0.00 0.00 0.00 0.00 0.00 0.00 0.00 0.00 0.00 0.00 0.00 0.01 0.01 0.01 0.01 0.01 0.01 0.01 0.01 0.01 0.02 0.02 0.02 0.02 0.02 0.02 0.02 0.02 0.03 0.05 0.07 0.12 0.17 0.18 0.17 0.15 0.16 0.17
0.00 0.00 0.00 0.00 0.00 0.00 0.00 0.00 0.00 0.00 0.00 0.00 0.00 0.00 0.00 0.01 0.01 0.01 0.01 0.01 0.01 0.01 0.01 0.01 0.01 0.02 0.02 0.02 0.02 0.02 0.02 0.03 0.03 0.03 0.03 0.06 0.10 0.16 0.21 0.22 0.20 0.17 0.18
0.00 0.00 0.00 0.00 0.00 0.00 0.00 0.00 0.00 0.00 0.00 0.00 0.00 0.00 0.00 0.00 0.00 0.01 0.01 0.01 0.01 0.02 0.02 0.02 0.01 0.01 0.01 0.02 0.01 0.02 0.03 0.03 0.03 0.03 0.04 0.06 0.08 0.14 0.19 0.22 0.25 0.22 0.18
0.00 0.00 0.00 0.00 0.00 0.00 0.00 0.00 0.00 0.00 0.00 0.00 0.00 0.00 0.00 0.00 0.00 0.00 0.00 0.01 0.01 0.02 0.02 0.02 0.02 0.01 0.01 0.00 0.00 0.00 0.01 0.03 0.03 0.04 0.04 0.06 0.08 0.11 0.18 0.23 0.25 0.28 0.22
0.00 0.00 0.00 0.00 0.00 0.00 0.00 0.00 0.00 0.00 0.00 0.00 0.00 0.00 0.00 0.01 0.00 0.00 0.00 0.00 0.01 0.01 0.02 0.03 0.02 0.01 0.02 0.02 0.02 0.01 0.01 0.00 0.01 0.03 0.04 0.05 0.08 0.12 0.18 0.25 0.27 0.26 0.26
0.00 0.00 0.00 0.00 0.00 0.00 0.00 0.00 0.00 0.00 0.00 0.00 0.00 0.01 0.01 0.01 0.00 0.00 0.00 0.00 0.01 0.01 0.02 0.02 0.03 0.03 0.03 0.03 0.05 0.05 0.04 0.02 0.01 0.01 0.02 0.04 0.06 0.12 0.18 0.24 0.33 0.36 0.32
0.00 0.00 0.00 0.00 0.00 0.00 0.00 0.00 0.00 0.00 0.00 0.00 0.00 0.01 0.01 0.01 0.00 0.00 0.00 0.00 0.01 0.01 0.02 0.02 0.03 0.04 0.03 0.01 0.03 0.05 0.05 0.05 0.02 0.01 0.01 0.02 0.02 0.05 0.13 0.23 0.34 0.39 0.39
0.00 0.00 0.00 0.00 0.00 0.00 0.00 0.00 0.00 0.00 0.00 0.00 0.00 0.01 0.01 0.01 0.00 0.00 0.00 0.00 0.01 0.02 0.03 0.03 0.02 0.02 0.02 0.01 0.03 0.06 0.06 0.06 0.06 0.05 0.03 0.01 0.02 0.03 0.07 0.14 0.24 0.34 0.35
0.00 0.00 0.00 0.00 0.00 0.00 0.00 0.00 0.00 0.00 0.00 0.00 0.01 0.01 0.01 0.01 0.00 0.00 0.00 0.00 0.01 0.02 0.02 0.02 0.04 0.02 0.01 0.01 0.02 0.04 0.05 0.06 0.09 0.10 0.10 0.07 0.07 0.10 0.09 0.10 0.17 0.26 0.33
0.00 0.00 0.00 0.00 0.00 0.00 0.00 0.00 0.00 0.00 0.01 0.01 0.01 0.01 0.01 0.01 0.01 0.00 0.00 0.00 0.00 0.01 0.02 0.03 0.04 0.02 0.02 0.02 0.01 0.01 0.01 0.02 0.06 0.10 0.10 0.09 0.08 0.11 0.11 0.10 0.13 0.20 0.29
0.00 0.00 0.00 0.00 0.00 0.00 0.00 0.00 0.01 0.01 0.01 0.00 0.01 0.01 0.01 0.01 0.01 0.00 0.00 0.00 0.00 0.01 0.02 0.02 0.02 0.02 0.02 0.02 0.02 0.02 0.02 0.02 0.05 0.08 0.09 0.08 0.08 0.12 0.14 0.14 0.16 0.20 0.27
0.00 0.00 0.00 0.00 0.00 0.00 0.00 0.00 0.00 0.01 0.01 0.01 0.01 0.02 0.02 0.02 0.02 0.02 0.02 0.01 0.01 0.01 0.01 0.01 0.01 0.02 0.03 0.04 0.03 0.02 0.03 0.04 0.06 0.08 0.10 0.11 0.11 0.13 0.16 0.15 0.15 0.19 0.23
0.00 0.00 0.00 0.00 0.00 0.00 0.00 0.01 0.00 0.01 0.01 0.00 0.00 0.01 0.01 0.01 0.01 0.01 0.01 0.01 0.01 0.01 0.01 0.02 0.03 0.05 0.05 0.06 0.05 0.06 0.07 0.07 0.06 0.09 0.12 0.13 0.12 0.13 0.14 0.15 0.15 0.16 0.18
0.00 0.00 0.00 0.00 0.00 0.00 0.00 0.00 0.00 0.00 0.00 0.00 0.00 0.00 0.00 0.00 0.00 0.00 0.00 0.00 0.00 0.00 0.01 0.03 0.05 0.06 0.07 0.08 0.08 0.07 0.08 0.09 0.09 0.10 0.11 0.13 0.14 0.13 0.13 0.14 0.15 0.15 0.15
0.00 0.00 0.00 0.00 0.00 0.00 0.00 0.01 0.01 0.01 0.01 0.00 0.00 0.00 0.00 0.00 0.00 0.01 0.01 0.01 0.01 0.01 0.02 0.04 0.05 0.07 0.08 0.09 0.08 0.08 0.08 0.10 0.10 0.11 0.11 0.12 0.13 0.14 0.15 0.15 0.14 0.15 0.16
0.00 0.00 0.00 0.00 0.00 0.00 0.01 0.01 0.01 0.01 0.02 0.02 0.01 0.01 0.01 0.01 0.01 0.01 0.01 0.01 0.02 0.02 0.03 0.04 0.05 0.07 0.09 0.09 0.09 0.08 0.11 0.12 0.11 0.11 0.12 0.12 0.12 0.14 0.15 0.15 0.16 0.15 0.15
0.00 0.00 0.00 0.00 0.00 0.00 0.01 0.01 0.01 0.01 0.03 0.03 0.02 0.04 0.02 0.01 0.01 0.01 0.01 0.01 0.03 0.04 0.05 0.04 0.05 0.07 0.09 0.09 0.11 0.10 0.11 0.12 0.10 0.09 0.11 0.12 0.11 0.13 0.13 0.14 0.16 0.16 0.16
0.00 0.00 0.00 0.00 0.00 0.00 0.00 0.00 0.01 0.02 0.04 0.04 0.04 0.05 0.03 0.02 0.03 0.03 0.03 0.03 0.03 0.04 0.04 0.06 0.06 0.05 0.07 0.09 0.11 0.12 0.11 0.11 0.11 0.10 0.09 0.11 0.11 0.11 0.12 0.11 0.14 0.16 0.15
0.00 0.00 0.00 0.00 0.00 0.00 0.00 0.01 0.02 0.03 0.03 0.03 0.04 0.03 0.02 0.02 0.03 0.04 0.04 0.05 0.04 0.04 0.05 0.06 0.08 0.06 0.05 0.06 0.09 0.13 0.13 0.13 0.13 0.12 0.11 0.11 0.10 0.10 0.11 0.12 0.12 0.16 0.17
0.00 0.00 0.00 0.00 0.00 0.00 0.00 0.01 0.02 0.03 0.03 0.03 0.04 0.04 0.02 0.03 0.04 0.04 0.05 0.05 0.05 0.05 0.05 0.05 0.06 0.08 0.07 0.06 0.08 0.11 0.14 0.13 0.13 0.13 0.12 0.11 0.10 0.09 0.10 0.12 0.12 0.15 0.18
0.00 0.00 0.00 0.00 0.00 0.00 0.00 0.02 0.03 0.04 0.03 0.03 0.03 0.04 0.05 0.04 0.04 0.05 0.06 0.06 0.05 0.05 0.05 0.05 0.06 0.06 0.07 0.08 0.08 0.09 0.13 0.13 0.12 0.11 0.12 0.12 0.10 0.08 0.09 0.11 0.12 0.13 0.15
0.00 0.00 0.00 0.00 0.00 0.01 0.01 0.04 0.04 0.03 0.04 0.04 0.03 0.02 0.04 0.04 0.04 0.05 0.05 0.06 0.06 0.06 0.05 0.06 0.06 0.06 0.07 0.09 0.08 0.08 0.10 0.10 0.10 0.10 0.11 0.11 0.11 0.11 0.11 0.12 0.12 0.12 0.13
0.00 0.00 0.00 0.00 0.00 0.01 0.03 0.04 0.04 0.05 0.05 0.04 0.02 0.03 0.04 0.04 0.03 0.03 0.04 0.06 0.06 0.07 0.07 0.07 0.07 0.08 0.08 0.09 0.10 0.09 0.07 0.05 0.05 0.08 0.10 0.10 0.10 0.11 0.12 0.11 0.11 0.11 0.12
0.00 0.00 0.01 0.01 0.01 0.03 0.03 0.04 0.04 0.05 0.05 0.04 0.03 0.03 0.03 0.04 0.03 0.03 0.03 0.04 0.05 0.06 0.06 0.06 0.05 0.06 0.06 0.07 0.06 0.04 0.03 0.03 0.02 0.03 0.06 0.09 0.11 0.13 0.13 0.14 0.12 0.13 0.13
MSLP
1014.69 1014.82 1014.94 1015.01 1015.04 1015.01 1014.94 1014.83 1014.70 1014.57 1014.45 1014.35 1014.27 1014.18 1014.09 1013.98 1013.83 1013.65 1013.43 1013.18 1012.93 1012.69 1012.48 1012.30 1012.16 1012.05 1011.97 1011.90 1011.84 1011.77 1011.69 1011.60 1011.51 1011.42 1011.35 1011.29 1011.26 1011.25 1011.27 1011.30 1011.35 1011.41 1011.49
1014.46 1014.54 1014.60 1014.63 1014.62 1014.57 1014.48 1014.37 1014.24 1014.11 1014.00 1013.91 1013.83 1013.76 1013.68 1013.57 1013.43 1013.25 1013.03 1012.78 1012.52 1012.27 1012.05 1011.87 1011.73 1011.64 1011.58 1011.54 1011.51 1011.48 1011.43 1011.37 1011.30 1011.22 1011.14 1011.07 1011.02 1010.99 1010.98 1010.99 1011.03 1011.08 1011.15
1014.22 1014.25 1014.27 1014.27 1014.23 1014.16 1014.06 1013.94 1013.82 1013.71 1013.61 1013.53 1013.46 1013.40 1013.32 1013.21 1013.07 1012.87 1012.64 1012.38 1012.11 1011.85 1011.61 1011.42 1011.28 1011.20 1011.16 1011.15 1011.15 1011.16 1011.14 1011.11 1011.06 1010.98 1010.90 1010.82 1010.75 1010.71 1010.69 1010.70 1010.74 1010.81 1010.89
1013.94 1013.96 1013.96 1013.93 1013.87 1013.79 1013.69 1013.57 1013.46 1013.35 1013.26 1013.19 1013.13 1013.07 1012.99 1012.87 1012.71 1012.50 1012.25 1011.96 1011.67 1011.39 1011.14 1010.94 1010.81 1010.73 1010.71 1010.73 1010.77 1010.80 1010.82 1010.81 1010.77 1010.70 1010.61 1010.53 1010.45 1010.40 1010.39 1010.42 1010.49 1010.59 1010.71
1013.63 1013.65 1013.64 1013.60 1013.54 1013.45 1013.35 1013.23 1013.12 1013.02 1012.94 1012.87 1012.81 1012.73 1012.64 1012.50 1012.32 1012.08 1011.80 1011.50 1011.18 1010.89 1010.63 1010.43 1010.31 1010.25 1010.25 1010.29 1010.36 1010.42 1010.46 1010.46 1010.43 1010.36 1010.28 1010.18 1010.11 1010.07 1010.08 1010.15 1010.26 1010.41 1010.59
1013.30 1013.32 1013.32 1013.29 1013.22 1013.13 1013.02 1012.90 1012.79 1012.69 1012.59 1012.51 1012.43 1012.34 1012.22 1012.06 1011.85 1011.59 1011.29 1010.97 1010.64 1010.34 1010.08 1009.90 1009.78 1009.74 1009.77 1009.83 1009.92 1010.00 1010.05 1010.06 1010.03 1009.97 1009.88 1009.79 1009.73 1009.71 1009.75 1009.86 1010.02 1010.24 1010.49
1012.96 1013.00 1013.01 1012.97 1012.90 1012.80 1012.68 1012.55 1012.42 1012.30 1012.19 1012.08 1011.98 1011.86 1011.72 1011.53 1011.30 1011.03 1010.71 1010.38 1010.06 1009.76 1009.52 1009.35 1009.26 1009.24 1009.28 1009.37 1009.47 1009.55 1009.61 1009.62 1009.59 1009.51 1009.42 1009.34 1009.28 1009.29 1009.36 1009.52 1009.75 1010.04 1010.36
1012.65 1012.71 1012.71 1012.67 1012.59 1012.46 1012.31 1012.15 1011.99 1011.84 1011.69 1011.56 1011.43 1011.29 1011.12 1010.92 1010.68 1010.40 1010.10 1009.78 1009.47 1009.19 1008.98 1008.83 1008.76 1008.75 1008.81 1008.90 1009.01 1009.09 1009.14 1009.14 1009.09 1009.01 1008.91 1008.83 1008.79 1008.81 1008.92 1009.11 1009.40 1009.75 1010.15
1012.38 1012.44 1012.44 1012.38 1012.26 1012.10 1011.91 1011.70 1011.50 1011.30 1011.12 1010.96 1010.80 1010.64 1010.46 1010.26 1010.03 1009.77 1009.49 1009.20 1008.92 1008.68 1008.49 1008.37 1008.31 1008.32 1008.38 1008.46 1008.55 1008.62 1008.65 1008.63 1008.57 1008.47 1008.37 1008.28 1008.24 1008.27 1008.40 1008.63 1008.96 1009.36 1009.82
1012.15 1012.20 1012.18 1012.08 1011.92 1011.71 1011.47 1011.21 1010.95 1010.72 1010.50 1010.31 1010.14 1009.97 1009.80 1009.62 1009.42 1009.20 1008.95 1008.71 1008.47 1008.26 1008.10 1007.99 1007.93 1007.94 1007.98 1008.04 1008.10 1008.14 1008.15 1008.11 1008.02 1007.91 1007.79 1007.70 1007.66 1007.70 1007.83 1008.08 1008.43 1008.86 1009.37
1011.93 1011.97 1011.91 1011.77 1011.56 1011.29 1010.99 1010.68 1010.38 1010.11 1009.87 1009.66 1009.49 1009.34 1009.20 1009.05 1008.89 1008.72 1008.53 1008.32 1008.13 1007.94 1007.79 1007.69 1007.62 1007.60 1007.61 1007.63 1007.66 1007.66 1007.64 1007.57 1007.47 1007.35 1007.22 1007.12 1007.07 1007.11 1007.24 1007.48 1007.82 1008.27 1008.79
1011.67 1011.68 1011.59 1011.41 1011.15 1010.84 1010.49 1010.14 1009.81 1009.51 1009.26 1009.05 1008.90 1008.78 1008.68 1008.58 1008.48 1008.35 1008.21 1008.05 1007.88 1007.71 1007.56 1007.43 1007.34 1007.27 1007.24 1007.21 1007.19 1007.16 1007.11 1007.02 1006.91 1006.79 1006.66 1006.56 1006.50 1006.53 1006.64 1006.86 1007.19 1007.62 1008.14
1011.32 1011.31 1011.19 1010.97 1010.68 1010.33 1009.95 1009.58 1009.23 1008.93 1008.69 1008.51 1008.39 1008.31 1008.25 1008.21 1008.15 1008.08 1007.98 1007.84 1007.68 1007.51 1007.34 1007.17 1007.03 1006.91 1006.81 1006.74 1006.68 1006.61 1006.54 1006.45 1006.35 1006.23 1006.12 1006.02 1005.97 1005.98 1006.07 1006.26 1006.55 1006.95 1007.44
1010.84 1010.81 1010.67 1010.43 1010.12 1009.76 1009.38 1009.01 1008.67 1008.39 1008.17 1008.02 1007.93 1007.89 1007.89 1007.89 1007.87 1007.83 1007.75 1007.62 1007.46 1007.26 1007.05 1006.83 1006.63 1006.45 1006.29 1006.17 1006.08 1006.00 1005.92 1005.85 1005.77 1005.68 1005.60 1005.52 1005.48 1005.48 1005.55 1005.70 1005.95 1006.30 1006.75
1010.20 1010.16 1010.01 1009.78 1009.47 1009.12 1008.76 1008.41 1008.10 1007.85 1007.67 1007.55 1007.50 1007.50 1007.52 1007.55 1007.56 1007.52 1007.44 1007.30 1007.11 1006.87 1006.60 1006.33 1006.07 1005.83 1005.63 1005.48 1005.36 1005.29 1005.23 1005.19 1005.16 1005.12 1005.08 1005.04 1005.02 1005.03 1005.08 1005.20 1005.41 1005.71 1006.12
1009.43 1009.38 1009.24 1009.02 1008.74 1008.42 1008.10 1007.79 1007.52 1007.31 1007.16 1007.07 1007.04 1007.06 1007.09 1007.12 1007.12 1007.07 1006.96 1006.79 1006.55 1006.26 1005.95 1005.62 1005.31 1005.03 1004.81 1004.64 1004.53 1004.48 1004.46 1004.48 1004.51 1004.53 1004.55 1004.56 1004.57 1004.59 1004.64 1004.75 1004.92 1005.18 1005.55
1008.57 1008.52 1008.39 1008.19 1007.95 1007.68 1007.40 1007.14 1006.91 1006.73 1006.61 1006.54 1006.51 1006.52 1006.53 1006.54 1006.50 1006.42 1006.27 1006.05 1005.76 1005.43 1005.07 1004.71 1004.37 1004.07 1003.84 1003.68 1003.60 1003.59 1003.63 1003.71 1003.81 1003.91 1003.99 1004.06 1004.11 1004.16 1004.22 1004.31 1004.47 1004.71 1005.05
1007.69 1007.63 1007.51 1007.35 1007.14 1006.91 1006.68 1006.46 1006.27 1006.11 1006.00 1005.92 1005.88 1005.86 1005.83 1005.79 1005.70 1005.56 1005.36 1005.09 1004.77 1004.40 1004.02 1003.64 1003.29 1003.00 1002.78 1002.65 1002.61 1002.65 1002.76 1002.90 1003.07 1003.24 1003.39 1003.51 1003.60 1003.68 1003.76 1003.86 1004.02 1004.25 1004.59
1006.85 1006.77 1006.66 1006.51 1006.34 1006.15 1005.96 1005.78 1005.61 1005.47 1005.34 1005.25 1005.17 1005.09 1005.01 1004.90 1004.75 1004.55 1004.30 1004.00 1003.64 1003.26 1002.87 1002.50 1002.17 1001.91 1001.72 1001.64 1001.65 1001.74 1001.90 1002.10 1002.32 1002.54 1002.74 1002.90 1003.03 1003.14 1003.24 1003.36 1003.54 1003.78 1004.13
1006.07 1005.96 1005.85 1005.72 1005.57 1005.42 1005.26 1005.10 1004.95 1004.80 1004.66 1004.53 1004.40 1004.27 1004.12 1003.95 1003.74 1003.49 1003.20 1002.87 1002.51 1002.13 1001.76 1001.42 1001.12 1000.90 1000.77 1000.73 1000.78 1000.91 1001.11 1001.35 1001.60 1001.85 1002.07 1002.26 1002.41 1002.54 1002.66 1002.81 1003.00 1003.27 1003.65
1005.36 1005.22 1005.10 1004.97 1004.85 1004.72 1004.58 1004.44 1004.30 1004.14 1003.99 1003.82 1003.65 1003.46 1003.26 1003.03 1002.78 1002.49 1002.18 1001.84 1001.49 1001.14 1000.80 1000.51 1000.26 1000.09 1000.00 1000.00 1000.08 1000.24 1000.45 1000.69 1000.95 1001.19 1001.41 1001.60 1001.76 1001.90 1002.03 1002.20 1002.41 1002.71 1003.11
1004.71 1004.54 1004.39 1004.27 1004.16 1004.05 1003.94 1003.81 1003.68 1003.53 1003.36 1003.17 1002.97 1002.75 1002.51 1002.25 1001.97 1001.67 1001.36 1001.03 1000.71 1000.40 1000.11 999.87 999.67 999.55 999.49 999.51 999.61 999.76 999.95 1000.18 1000.40 1000.62 1000.82 1000.98 1001.12 1001.25 1001.39 1001.56 1001.79 1002.11 1002.53
1004.08 1003.88 1003.72 1003.60 1003.50 1003.41 1003.33 1003.23 1003.11 1002.98 1002.82 1002.63 1002.42 1002.19 1001.94 1001.68 1001.40 1001.11 1000.82 1000.53 1000.25 999.99 999.75 999.55 999.40 999.30 999.27 999.29 999.37 999.50 999.65 999.83 1000.00 1000.17 1000.32 1000.44 1000.55 1000.65 1000.78 1000.94 1001.17 1001.49 1001.93
1003.45 1003.23 1003.07 1002.95 1002.87 1002.81 1002.75 1002.69 1002.61 1002.51 1002.38 1002.22 1002.03 1001.82 1001.60 1001.35 1001.10 1000.85 1000.59 1000.34 1000.11 999.89 999.70 999.54 999.41 999.33 999.29 999.30 999.35 999.43 999.53 999.64 999.75 999.85 999.94 1000.01 1000.07 1000.14 1000.24 1000.39 1000.61 1000.92 1001.34
1002.85 1002.61 1002.45 1002.34 1002.28 1002.25 1002.23 1002.22 1002.18 1002.13 1002.05 1001.95 1001.81 1001.65 1001.46 1001.27 1001.06 1000.85 1000.64 1000.44 1000.24 1000.06 999.89 999.75 999.64 999.55 999.50 999.47 999.47 999.49 999.53 999.57 999.62 999.65 999.67 999.69 999.71 999.75 999.81 999.93 1000.12 1000.40 1000.79
1002.28 1002.05 1001.89 1001.80 1001.76 1001.77 1001.79 1001.82 1001.85 1001.86 1001.85 1001.80 1001.73 1001.63 1001.51 1001.37 1001.22 1001.05 1000.89 1000.72 1000.55 1000.39 1000.24 1000.10 999.97 999.86 999.78 999.71 999.66 999.62 999.59 999.57 999.55 999.53 999.50 999.47 999.45 999.45 999.49 999.57 999.73 999.97 1000.32
Thickness
5688 5683 5677 5674 5670 5666 5662 5658 5654 5650 5645 5642 5639 5636 5633 5631 5628 5625 5623 5621 5619 5618 5617 5617 5617 5617 5620 5624 5627 5630 5634 5637 5640 5649 5656 5660 5662 5666 5673 5679 5685 5690 5695
5686 5680 5675 5670 5666 5662 5659 5654 5650 5645 5641 5638 5634 5631 5628 5625 5622 5619 5616 5615 5613 5611 5610 5610 5609 5611 5611 5612 5616 5620 5625 5629 5632 5637 5645 5650 5654 5659 5664 5670 5677 5684 5689
5684 5678 5672 5668 5663 5659 5654 5650 5646 5641 5637 5633 5629 5626 5622 5619 5616 5613 5610 5607 5606 5604 5603 5602 5602 5602 5602 5605 5607 5611 5616 5622 5625 5630 5636 5642 5647 5652 5656 5661 5668 5674 5680
5680 5675 5670 5665 5660 5655 5651 5646 5641 5637 5632 5628 5624 5620 5616 5613 5609 5606 5603 5600 5598 5597 5595 5594 5594 5594 5594 5595 5598 5601 5605 5610 5615 5620 5628 5634 5639 5645 5648 5653 5658 5665 5671
5676 5672 5667 5662 5657 5651 5646 5642 5637 5632 5628 5623 5619 5614 5610 5607 5605 5601 5595 5593 5590 5588 5587 5586 5586 5586 5585 5585 5589 5594 5597 5600 5607 5612 5619 5626 5632 5637 5641 5647 5651 5655 5661
5672 5668 5664 5658 5653 5648 5643 5638 5632 5627 5623 5617 5613 5608 5604 5602 5597 5588 5582 5581 5581 5579 5579 5578 5578 5577 5577 5575 5575 5577 5580 5587 5596 5602 5610 5617 5623 5630 5635 5639 5643 5647 5651
5669 5664 5660 5655 5649 5644 5639 5634 5628 5623 5617 5612 5607 5602 5598 5594 5586 5579 5572 5569 5571 5571 5571 5570 5570 5574 5571 5571 5570 5569 5571 5574 5578 5586 5597 5606 5614 5621 5626 5631 5635 5640 5644
5667 5662 5657 5651 5645 5640 5634 5628 5623 5617 5611 5606 5601 5596 5591 5587 5579 5572 5565 5563 5564 5565 5563 5562 5561 5561 5561 5561 5562 5566 5569 5573 5575 5577 5586 5596 5602 5610 5616 5621 5626 5631 5636
5664 5659 5654 5648 5641 5635 5629 5623 5617 5611 5606 5601 5596 5591 5585 5580 5573 5565 5556 5559 5561 5560 5558 5556 5553 5552 5550 5547 5548 5553 5558 5564 5568 5573 5578 5584 5589 5597 5604 5611 5617 5622 5626
5662 5656 5650 5643 5637 5630 5625 5618 5613 5606 5601 5595 5591 5585 5580 5575 5568 5559 5550 5553 5555 5554 5552 5549 5545 5541 5539 5536 5538 5542 5547 5554 5559 5567 5570 5574 5581 5588 5593 5602 5610 5615 5620
5659 5652 5645 5639 5632 5626 5620 5614 5608 5602 5596 5590 5585 5580 5576 5570 5564 5555 5547 5545 5547 5547 5545 5544 5542 5535 5529 5525 5525 5531 5537 5540 5548 5555 5563 5571 5577 5584 5591 5599 5605 5611 5616
5653 5647 5641 5634 5629 5624 5616 5609 5603 5597 5591 5587 5582 5577 5573 5568 5560 5554 5544 5538 5534 5536 5537 5537 5534 5526 5521 5518 5518 5522 5524 5526 5537 5546 5554 5562 5572 5580 5588 5595 5601 5605 5611
5648 5642 5636 5630 5624 5618 5611 5605 5599 5594 5589 5585 5580 5574 5570 5566 5559 5549 5541 5535 5530 5529 5533 5530 5523 5518 5515 5515 5514 5514 5515 5522 5531 5540 5548 5557 5566 5575 5583 5587 5592 5597 5602
5642 5636 5631 5625 5620 5615 5607 5602 5597 5591 5586 5581 5576 5571 5566 5561 5556 5550 5544 5538 5531 5528 5528 5526 5519 5515 5512 5512 5514 5514 5516 5523 5529 5535 5543 5552 5560 5567 5573 5581 5585 5590 5594
5637 5631 5626 5622 5617 5609 5604 5598 5592 5587 5581 5572 5570 5566 5561 5557 5551 5538 5533 5533 5531 5528 5522 5523 5523 5523 5520 5518 5517 5517 5518 5522 5525 5531 5537 5544 5552 5560 5567 5575 5580 5585 5590
5631 5626 5622 5618 5613 5607 5602 5597 5591 5582 5575 5567 5559 5553 5553 5547 5539 5533 5527 5522 5518 5514 5513 5521 5523 5523 5521 5519 5518 5518 5519 5521 5524 5529 5534 5540 5548 5555 5562 5569 5575 5581 5586
5625 5620 5617 5612 5608 5603 5598 5592 5588 5583 5574 5567 5560 5552 5545 5541 5535 5530 5525 5520 5516 5512 5515 5523 5524 5523 5521 5519 5519 5519 5520 5522 5524 5527 5532 5538 5545 5552 5558 5564 5571 5577 5582
5620 5617 5609 5605 5601 5598 5593 5588 5584 5580 5576 5573 5565 5554 5547 5540 5535 5530 5524 5519 5525 5521 5524 5527 5527 5525 5523 5521 5520 5519 5520 5521 5523 5527 5531 5537 5543 5549 5555 5562 5568 5573 5578
5616 5612 5607 5602 5597 5594 5590 5586 5582 5578 5574 5570 5566 5560 5549 5544 5537 5531 5525 5527 5532 5532 5531 5530 5529 5527 5525 5523 5521 5520 5520 5522 5525 5527 5531 5536 5542 5547 5553 5559 5565 5569 5574
5611 5605 5598 5595 5592 5590 5587 5583 5580 5576 5571 5567 5563 5560 5555 5550 5547 5542 5536 5535 5535 5534 5533 5532 5531 5529 5526 5525 5523 5522 5523 5524 5526 5529 5532 5537 5541 5547 5552 5557 5563 5568 5574
5607 5604 5592 5587 5587 5586 5583 5580 5576 5572 5569 5566 5562 5558 5548 5549 5547 5545 5542 5539 5537 5535 5533 5532 5530 5529 5528 5527 5526 5525 5525 5527 5529 5532 5535 5538 5542 5546 5552 5557 5562 5566 5572
5599 5596 5593 5589 5585 5581 5578 5575 5572 5569 5566 5563 5560 5557 5548 5547 5547 5545 5543 5540 5538 5536 5534 5532 5531 5531 5531 5530 5530 5528 5529 5529 5531 5533 5536 5539 5542 5546 5551 5555 5559 5563 5567
5588 5587 5585 5583 5579 5574 5570 5570 5568 5565 5564 5561 5558 5555 5552 5548 5546 5544 5543 5540 5537 5535 5534 5532 5532 5532 5532 5531 5531 5530 5531 5532 5533 5536 5538 5539 5542 5546 5550 5553 5556 5560 5564
5581 5579 5578 5576 5573 5571 5569 5567 5564 5562 5561 5558 5555 5552 5550 5547 5544 5542 5541 5538 5536 5534 5532 5531 5531 5531 5530 5530 5530 5531 5532 5532 5534 5536 5538 5540 5543 5546 5549 5551 5554 5558 5562
5571 5571 5570 5569 5568 5566 5564 5561 5559 5558 5556 5554 5551 5549 5547 5545 5542 5540 5538 5536 5535 5533 5531 5529 5529 5528 5528 5528 5529 5529 5528 5527 5528 5532 5536 5539 5542 5545 5548 5551 5553 5556 5559
5559 5561 5561 5561 5560 5558 5556 5555 5553 5552 5551 5549 5547 5545 5543 5541 5539 5537 5536 5534 5533 5531 5529 5527 5526 5526 5526 5526 5526 5524 5522 5524 5525 5526 5531 5537 5540 5544 5546 5549 5553 5555 5557